EXS7D EGBB-LPFR

Flight info

Callsign EXS7D
Flight time N/A
Altitude 23000
Route ADMEX Y321 PEPIS/N0435F360 Q41 SAM/N0437F370 M195 LORKU DCT POZOF DCT BALDA DCT ABUPI DCT BIRBA DCT ALAGU
Aircraft A320/M-SDE3FGHIRWY/LB1

Departure

Time 2026-04-27 15:08
Airport Birmingham Airport (EGBB)

Arrival

Time N/A
Airport Faro - Gago Coutinho International Airport (LPFR)
Time Latitude Longitude Altitude Speed Heading
2026-04-27 14:32 52.45295 -1.73800 0 ft 0 kts 146°
2026-04-27 14:58 52.45313 -1.73820 323 ft 4 kts 150°
2026-04-27 14:58 52.45338 -1.73839 320 ft 4 kts 163°
2026-04-27 14:58 52.45363 -1.73844 321 ft 4 kts 204°
2026-04-27 14:59 52.45374 -1.73831 322 ft 1 kts 236°
2026-04-27 14:59 52.45375 -1.73829 322 ft 0 kts 236°
2026-04-27 15:03 52.45369 -1.73842 323 ft 2 kts 236°
2026-04-27 15:03 52.45355 -1.73874 323 ft 5 kts 235°
2026-04-27 15:03 52.45334 -1.73926 323 ft 7 kts 236°
2026-04-27 15:03 52.45292 -1.73970 323 ft 8 kts 185°
2026-04-27 15:04 52.45236 -1.73924 323 ft 10 kts 144°
2026-04-27 15:04 52.45171 -1.73851 323 ft 12 kts 145°
2026-04-27 15:04 52.45094 -1.73772 323 ft 14 kts 155°
2026-04-27 15:04 52.44999 -1.73709 323 ft 16 kts 148°
2026-04-27 15:05 52.44900 -1.73650 323 ft 15 kts 185°
2026-04-27 15:05 52.44796 -1.73699 322 ft 16 kts 196°
2026-04-27 15:05 52.44721 -1.73771 324 ft 13 kts 233°
2026-04-27 15:05 52.44673 -1.73888 326 ft 12 kts 235°
2026-04-27 15:06 52.44642 -1.73975 325 ft 6 kts 269°
2026-04-27 15:06 52.44663 -1.74002 324 ft 0 kts 327°
2026-04-27 15:06 52.44663 -1.74003 324 ft 0 kts 327°
2026-04-27 15:07 52.44711 -1.74054 324 ft 33 kts 327°
2026-04-27 15:07 52.45095 -1.74479 328 ft 96 kts 326°
2026-04-27 15:07 52.45797 -1.75258 324 ft 145 kts 326°
2026-04-27 15:07 52.46651 -1.76257 793 ft 150 kts 327°
2026-04-27 15:08 52.47509 -1.77208 1503 ft 149 kts 326°
2026-04-27 15:08 52.48366 -1.78163 2175 ft 149 kts 326°
2026-04-27 15:08 52.49264 -1.79173 2555 ft 166 kts 326°
2026-04-27 15:08 52.50338 -1.80130 2826 ft 189 kts 343°
2026-04-27 15:09 52.51728 -1.80200 3160 ft 214 kts 12°
2026-04-27 15:09 52.53046 -1.79016 3911 ft 223 kts 42°
2026-04-27 15:09 52.53836 -1.76793 4712 ft 234 kts 74°
2026-04-27 15:09 52.53917 -1.74082 5523 ft 243 kts 97°
2026-04-27 15:10 52.53548 -1.71358 6373 ft 246 kts 101°
2026-04-27 15:10 52.53138 -1.68613 7173 ft 249 kts 107°
2026-04-27 15:10 52.52290 -1.66086 7745 ft 265 kts 131°
2026-04-27 15:10 52.50934 -1.63847 8129 ft 287 kts 136°
2026-04-27 15:11 52.49479 -1.61526 8818 ft 295 kts 136°
2026-04-27 15:11 52.48894 -1.60592 9137 ft 298 kts 136°